• Processing (Info)

  • MPEC 2022-O40 : 2022 OT

    The following Minor Planet Electronic Circular may be linked-to from your own Web pages, but must not otherwise be redistributed electronically.

    A form allowing access to any MPEC is at the bottom of this page.


    Read MPEC 2022-O39 Read MPEC 2022-O41


    M.P.E.C. 2022-O40                                 Issued 2022 July 24, 10:50 UT
    
         The Minor Planet Electronic Circulars contain information on unusual
             minor planets and routine data on comets.  They are published
        on behalf of Division F of the International Astronomical Union by the
              Minor Planet Center, Smithsonian Astrophysical Observatory,
                              Cambridge, MA 02138, U.S.A.
    
                 Prepared using the Tamkin Foundation Computer Network
    
                                  MPC@CFA.HARVARD.EDU
                URL https://www.minorplanetcenter.net/    ISSN 1523-6714
    
                                     2022 OT                                 
    
    
    Observations:
         K22O00T  C2022 07 20.48578721 47 55.199+05 37 53.36         18.72GVEO040F52
         K22O00T  C2022 07 20.49731521 46 55.258+05 33 37.87         18.52GVEO040F52
         K22O00T  C2022 07 20.51853221 45 06.310+05 25 51.59         18.75GVEO040F52
         K22O00T* C2022 07 22.34398020 30 00.654-00 40 43.38         20.11wUEO040F52
         K22O00T  C2022 07 22.35264520 29 48.134-00 41 38.11               VEO040F52
         K22O00T  C2022 07 22.36183620 29 34.889-00 42 35.67         20.09wUEO040F52
         K22O00T  C2022 07 22.47828920 26 49.381-00 54 19.84               VEO040F52
         K22O00T ^C2022 07 23.43201920 11 56.927-02 08 22.79         20.59GVEO040568
         K22O00T ^C2022 07 23.43299520 11 56.039-02 08 26.41         20.56GVEO040568
         K22O00T ^C2022 07 23.43398020 11 55.142-02 08 30.06         20.62GVEO040568
         K22O00T KC2022 07 23.88439920 06 59.62 -02 36 00.1                XEO040I93
         K22O00T KC2022 07 23.89653220 06 51.03 -02 36 37.8                XEO040I93
         K22O00T KC2022 07 23.90831820 06 42.67 -02 37 14.5          20.5 GXEO040I93
         K22O00T KC2022 07 24.18604420 03 57.63 -02 50 12.4          21.1 VuEO040H21
         K22O00T KC2022 07 24.19383820 03 52.49 -02 50 33.9          21.1 VuEO040H21
    
    Observer details:
    568 Mauna Kea.  Observers R. Wainscoat, H. Januszewski, E. Bertin.  Measurers
        R. Weryk, R. Wainscoat.  3.6-m Canada-France-Hawaii Telescope + CCD.
    F52 Pan-STARRS 2, Haleakala.  Observers J. Bulger, K. Chambers, T. Dukes, T.
        Lowe, A. Schultz, I. Smith.  Measurers S. Chastel, J. Fairlamb, M. Huber,
        Y. Ramanjooloo, R. Wainscoat, R. Weryk, K. Chambers, T. de Boer, H. Gao,
        C.-C. Lin, E. Magnier.  1.8-m Ritchey-Chretien + CCD.
    H21 Astronomical Research Observatory, Westfield.  Observer R. Holmes.
        Measurers T. Linder, R. Holmes, L. Horn.  0.81-m f/4.0 astrograph + CCD.
    I93 St Pardon de Conques.  Observer F. Losse.  0.40-m f/3.7 reflector + CCD.
    
    Orbital elements:
    2022 OT                                                  Earth MOID = 0.0007 AU
    Epoch 2022 Aug. 9.0 TT = JDT 2459800.5                  Veres                   
    M  93.90201              (2000.0)            P               Q                  
    n   0.95903536     Peri.  255.00995     -0.97943525     +0.18850293             
    a   1.0183873      Node   295.81205     -0.14033187     -0.89261429             
    e   0.2751888      Incl.    4.58263     -0.14496052     -0.40951968             
    P   1.03           H   27.96          G   0.15           U   6                  
    Residuals in seconds of arc
    220720 F52  0.3-  0.1-    220722 F52  0.2-  0.1-    220723 I93  0.3+  0.3+
    220720 F52  0.6+  0.1+    220722 F52  0.0   0.2-    220723 I93  0.1-  0.1+
    220720 F52  0.0   0.0     220723 568  0.0   0.0     220723 I93  0.4-  0.3-
    220722 F52  0.2+  0.0     220723 568  0.0   0.0     220724 H21  0.0   0.1-
    220722 F52  0.2-  0.2-    220723 568  0.0   0.0     220724 H21  0.1-  0.1-
    
    Ephemeris:
    2022 OT                  a,e,i = 1.02, 0.28, 5                   q = 0.7381
    Date    TT    R. A. (2000) Decl.     Delta      r    Elong.  Phase     V
    2022 06 24    07 08 51.4 +08 25 52   0.1302  0.8958    20.6   156.4    33.2
    ...
    2022 07 09    06 55 25.4 +08 18 12   0.05029 0.9681    14.6   164.6    34.3
    ...
    2022 07 17    05 29 39.0 +13 30 53   0.01178 1.0065    32.9   146.7    26.2
    ...
    2022 07 23    20 17 53.4 -01 36 09   0.01972 1.0347   161.3    18.4    20.5
    2022 07 24    20 05 38.3 -02 37 24   0.02447 1.0393   162.6    17.0    20.9
    2022 07 25    19 57 22.6 -03 19 07   0.02929 1.0439   162.9    16.6    21.3
    ...
    2022 07 31    19 36 57.7 -05 11 59   0.05894 1.0707   159.8    19.1    22.9
    ...
    2022 08 08    19 30 40.9 -06 14 52   0.1002  1.1047   153.6    24.1    24.3
    ...
    2022 08 23    19 33 46.2 -07 29 55   0.1841  1.1621   142.1    32.3    26.0
    
    M. P. C. Staff               (C) Copyright 2022 MPC           M.P.E.C. 2022-O40
    


    Read MPEC 2022-O39 Read MPEC 2022-O41


    MPEC number:

    Enter an MPEC number in one of the following forms:

    • 1997-B01 (the full form)
    • J97B01 (the packed version of the full form)
    • B01 (the abbreviated form)